Location: Newark
(50.8086°N, 4.3114°E)
Time: 02:35:46
(UTC+00:00)

XW-2D - Pass Details

Date: 23 January 2020
Orbit: 507 x 528 km, 97.5° (Epoch: 26 February)

Event Time Altitude Azimuth Distance (km) Brightness Sun altitude
Rises 06:15:19 0° 9° (N) 2,640 ? -11.8°
Reaches altitude 10° 06:17:28 10° 4° (N) 1,745 ? -11.5°
Maximum altitude 06:21:06 49° 289° (WNW) 668 ? -11.0°
Drops below altitude 10° 06:24:41 10° 214° (SW) 1,724 ? -10.4°
Sets 06:26:48 0° 209° (SSW) 2,603 ? -10.1°
